Погода в Кутно

Польша     52°13′19″N   19°23′14″E
темп.,
°C
ветер,
м/с
пор.,
м/с
влажн.,
%
обл.,
%
осадки,
мм/ч
давл.,
гПа
погр.,
м
25 июня, сб
сб2523:00+18вюв413730 0.0 1013281
02:00+17вюв412700 0.0 1013232
05:00+15вюв411750 0.0 1013183
08:00+21вюв611620 0.0 1014424
11:00+26вюв78462 0.0 10141119
14:00+28вюв67393 0.0 10141889
17:00+28вюв56400 0.0 10142086
20:00+23вюв410645 0.0 1014189
26 июня, вс
вс2623:00+19вюв49687 0.0 1015144
02:00+17вюв46745 0.0 1016100
05:00+16вюв367714 0.0 101796
08:00+22вюв47630 0.0 1017328
11:00+26вюв67474 0.0 10181450
14:00+28юв67410 0.0 10172093
17:00+28вюв67434 0.0 10172168
20:00+24вюв496411 0.0 1017214
27 июня, пн
пн2723:00+21вюв41266100 0.0 1018322
02:00+18вюв410825 0.0 1018186
05:00+17вюв49901 0.0 1019176
08:00+22вюв696910 0.0 1019506
11:00+26вюв685469 0.0 10191238
14:00+29юв67450 0.0 10171869
17:00+29юв664464 0.0 10172113
20:00+25вюв6126082 0.0 1017445
28 июня, вт
вт2823:00+22вюв512703 0.0 1017310
02:00+18вюв48860 0.0 1017132
05:00+18вюв48910 0.0 1018153
08:00+24юв58660 0.0 1018421
11:00+28юв45470 0.0 10181387
14:00+30юв3341100 0.0 10172575
17:00+24зсз7872100 0.0 1019505
20:00+20сз379398 2.1 1020341
29 июня, ср
ср2923:00+19ссз599697 1.3 1020458
02:00+18ссз4795100 1.8 1021448
05:00+17ссз3597100 1.4 1021362
08:00+18с3392100 1.4 1020490
11:00+20с2182100 0.0 1020610
14:00+26ююз1163100 0.0 1019937
17:00+24з3368100 0.0 1018529
20:00+23с3578100 0.0 1017135